This is the latest recevied weather packets stored in our database for station/object KD8OZS. If no packets are shown the sender has not sent any weather packets the latest 10 day(s).
| Time | Temp. | Humidity | Pressure | Rain* | Wind** | Luminosity | Snow |
|---|---|---|---|---|---|---|---|
| 1778176938 | 13.89° C | 49% | 1005.1 hPa | 0 mm | - | 783 W/m² | - |
| 1778176633 | 13.89° C | 48% | 1005.3 hPa | 0 mm | - | 150 W/m² | - |
| 1778176330 | 14.44° C | 48% | 1005.3 hPa | 0 mm | - | 653 W/m² | - |
| 1778176028 | 13.89° C | 51% | 1005.6 hPa | 0 mm | - | 788 W/m² | - |
| 1778175726 | 13.89° C | 49% | 1005.2 hPa | 0 mm | - | 799 W/m² | - |
| 1778175423 | 13.33° C | 51% | 1005.4 hPa | 0 mm | - | 824 W/m² | - |
| 1778175120 | 13.89° C | 53% | 1005.4 hPa | 0 mm | - | 649 W/m² | - |
| 1778174816 | 13.89° C | 52% | 1005.6 hPa | 0 mm | - | 496 W/m² | - |
| 1778174513 | 14.44° C | 49% | 1005.6 hPa | 0 mm | - | 360 W/m² | - |
| 1778174213 | 15° C | 49% | 1005.5 hPa | 0 mm | - | 749 W/m² | - |
| 1778173910 | 14.44° C | 51% | 1005.3 hPa | 0 mm | - | 828 W/m² | - |
| 1778173607 | 13.33° C | 49% | 1005.5 hPa | 0 mm | - | 764 W/m² | - |
| 1778173305 | 13.33° C | 49% | 1005.5 hPa | 0 mm | - | 267 W/m² | - |
| 1778173000 | 12.78° C | 49% | 1005.5 hPa | 0 mm | - | 472 W/m² | - |
| 1778172697 | 12.78° C | 50% | 1005.5 hPa | 0 mm | - | 180 W/m² | - |
| 1778172392 | 13.89° C | 47% | 1005.6 hPa | 0 mm | - | 203 W/m² | - |
| 1778172090 | 13.33° C | 52% | 1005.5 hPa | 0 mm | - | 379 W/m² | - |
| 1778171787 | 13.33° C | 49% | 1005.6 hPa | 0 mm | - | 523 W/m² | - |
| 1778171485 | 13.89° C | 50% | 1005.7 hPa | 0 mm | - | 81 W/m² | - |
| 1778171180 | 13.89° C | 47% | 1005.4 hPa | 0 mm | - | 117 W/m² | - |
| 1778170877 | 13.33° C | 53% | 1005.6 hPa | 0 mm | - | 433 W/m² | - |
| 1778170573 | 12.78° C | 50% | 1005.5 hPa | 0 mm | - | 212 W/m² | - |
| 1778170270 | 12.78° C | 48% | 1005.6 hPa | 0 mm | - | 128 W/m² | - |
| 1778169966 | 13.33° C | 51% | 1005.6 hPa | 0 mm | - | 101 W/m² | - |
| 1778169662 | 12.78° C | 51% | 1005.4 hPa | 0 mm | - | 144 W/m² | - |
* Rain latest hour (hover to see other rain measurements)
** Current wind speed in m/s (hover to see current wind gust speed)